GW1859 Weather Reports


Display with metric or nautical units.
time (UTC)temp
F
wind
direction
speed
MPH
gust
MPH
rain 1hr
in
rain 24hr
in
rain mn
in
humidity
%
barometer
mb
20260503233323 83 113 4.0 6.0 0.00 0.00 0.00 25 1009.7
20260503232820 83 174 5.0 7.0 0.00 0.00 0.00 24 1010.0
20260503232318 83 171 6.0 7.0 0.00 0.00 0.00 24 1010.0
20260503231816 84 270 5.0 6.0 0.00 0.00 0.00 24 1010.1
20260503231312 84 235 5.0 7.0 0.00 0.00 0.00 23 1009.8
20260503230808 84 114 3.0 5.0 0.00 0.00 0.00 23 1009.9
20260503230306 86 168 4.0 5.0 0.00 0.00 0.00 24 1010.1
20260503225803 85 180 7.0 9.0 0.00 0.00 0.00 23 1010.0
20260503225258 86 172 3.0 5.0 0.00 0.00 0.00 24 1010.1
20260503224755 86 196 7.0 9.0 0.00 0.00 0.00 23 1010.1
20260503224253 86 193 6.0 8.0 0.00 0.00 0.00 23 1010.0
20260503223750 86 253 5.0 7.0 0.00 0.00 0.00 23 1010.1
20260503223248 86 161 3.0 5.0 0.00 0.00 0.00 23 1010.2
20260503222743 86 172 4.0 6.0 0.00 0.00 0.00 22 1010.3
20260503222242 86 223 3.0 6.0 0.00 0.00 0.00 22 1010.4
20260503221740 87 191 5.0 7.0 0.00 0.00 0.00 21 1010.3
20260503221237 87 129 4.0 6.0 0.00 0.00 0.00 20 1010.5
20260503220734 86 225 2.0 3.0 0.00 0.00 0.00 22 1010.4
20260503220231 87 195 4.0 10.0 0.00 0.00 0.00 21 1010.2
20260503215727 87 175 3.0 5.0 0.00 0.00 0.00 21 1010.5
20260503215224 87 285 3.0 7.0 0.00 0.00 0.00 20 1010.4
20260503214723 87 149 3.0 3.0 0.00 0.00 0.00 21 1010.7
20260503214219 86 97 4.0 6.0 0.00 0.00 0.00 20 1010.7
20260503213717 86 218 2.0 3.0 0.00 0.00 0.00 22 1010.6
20260503213214 88 208 3.0 5.0 0.00 0.00 0.00 22 1010.7
20260503212711 88 210 3.0 5.0 0.00 0.00 0.00 22 1010.9
20260503212209 87 207 3.0 5.0 0.00 0.00 0.00 21 1010.9
20260503211706 88 215 3.0 3.0 0.00 0.00 0.00 20 1011.0
20260503211202 88 155 5.0 7.0 0.00 0.00 0.00 20 1011.3
20260503210658 88 159 8.0 16.0 0.00 0.00 0.00 20 1011.4
20260503210155 87 259 2.0 3.0 0.00 0.00 0.00 21 1011.3
20260503205650 88 213 3.0 5.0 0.00 0.00 0.00 19 1011.3
20260503205146 88 185 3.0 5.0 0.00 0.00 0.00 21 1011.3
20260503204643 89 218 6.0 11.0 0.00 0.00 0.00 19 1011.6
20260503204141 88 202 4.0 7.0 0.00 0.00 0.00 19 1011.7
20260503203638 88 129 2.0 3.0 0.00 0.00 0.00 20 1011.8
20260503203136 88 191 5.0 6.0 0.00 0.00 0.00 22 1012.1
20260503202633 87 225 4.0 5.0 0.00 0.00 0.00 22 1012.1
20260503202131 87 224 4.0 5.0 0.00 0.00 0.00 23 1012.0
20260503201629 86 195 7.0 9.0 0.00 0.00 0.00 22 1012.5
20260503201125 87 197 7.0 10.0 0.00 0.00 0.00 22 1012.2
20260503200622 87 243 5.0 6.0 0.00 0.00 0.00 22 1012.6
20260503200118 86 260 7.0 8.0 0.00 0.00 0.00 19 1012.6
20260503195615 87 236 5.0 7.0 0.00 0.00 0.00 20 1012.8
20260503195112 86 224 1.0 2.0 0.00 0.00 0.00 20 1012.7
20260503194609 87 218 4.0 8.0 0.00 0.00 0.00 20 1012.8
20260503194104 87 246 4.0 5.0 0.00 0.00 0.00 20 1012.7
20260503193601 86 202 5.0 9.0 0.00 0.00 0.00 20 1012.9
20260503193056 87 169 7.0 10.0 0.00 0.00 0.00 20 1013.0
20260503192553 86 184 5.0 6.0 0.00 0.00 0.00 20 1013.1
20260503192049 86 332 6.0 10.0 0.00 0.00 0.00 21 1013.0
20260503191545 86 245 4.0 5.0 0.00 0.00 0.00 21 1013.0
20260503191042 86 339 6.0 9.0 0.00 0.00 0.00 21 1013.0
20260503190539 86 185 2.0 2.0 0.00 0.00 0.00 22 1013.1
20260503190036 86 232 7.0 9.0 0.00 0.00 0.00 19 1013.3
20260503185532 86 196 5.0 8.0 0.00 0.00 0.00 21 1013.5
20260503185026 85 163 5.0 6.0 0.00 0.00 0.00 21 1013.5
20260503184523 85 316 4.0 6.0 0.00 0.00 0.00 21 1013.6
20260503184020 85 222 3.0 3.0 0.00 0.00 0.00 20 1013.5
20260503183516 85 142 6.0 8.0 0.00 0.00 0.00 22 1013.7
20260503183013 85 174 4.0 6.0 0.00 0.00 0.00 24 1013.8
20260503182512 85 145 4.0 7.0 0.00 0.00 0.00 23 1013.9
20260503182009 84 272 7.0 10.0 0.00 0.00 0.00 22 1013.8
20260503181507 84 218 6.0 8.0 0.00 0.00 0.00 24 1014.1
20260503181002 84 212 4.0 6.0 0.00 0.00 0.00 23 1014.2
20260503180500 84 227 5.0 7.0 0.00 0.00 0.00 20 1014.5
20260503175957 84 341 6.0 8.0 0.00 0.00 0.00 22 1014.2
20260503175455 84 320 5.0 8.0 0.00 0.00 0.00 20 1014.8
20260503174951 84 142 5.0 7.0 0.00 0.00 0.00 22 1015.0
20260503174449 84 306 3.0 3.0 0.00 0.00 0.00 24 1014.9
20260503173944 83 272 4.0 8.0 0.00 0.00 0.00 23 1014.9
20260503173440 84 120 3.0 5.0 0.00 0.00 0.00 26 1015.0
20260503172937 83 204 5.0 7.0 0.00 0.00 0.00 28 1015.2
20260503172434 83 99 5.0 8.0 0.00 0.00 0.00 29 1015.0
20260503171931 83 212 6.0 9.0 0.00 0.00 0.00 29 1015.3
20260503171427 82 174 2.0 2.0 0.00 0.00 0.00 29 1015.2
20260503170925 82 193 4.0 5.0 0.00 0.00 0.00 30 1015.3
20260503170421 82 130 4.0 7.0 0.00 0.00 0.00 30 1015.3
20260503150814 65 177 5.0 7.0 0.00 0.00 0.00 57 1016.6
20260503150309 65 230 4.0 5.0 0.00 0.00 0.00 57 1016.6
20260503140234 58 174 2.0 3.0 0.00 0.00 0.00 69 1017.1
20260503131203 50 139 2.0 3.0 0.00 0.00 0.00 77 1017.2
20260503130701 50 190 2.0 2.0 0.00 0.00 0.00 78 1017.4
20260503130158 49 137 2.0 3.0 0.00 0.00 0.00 79 1017.3
20260503120124 44 143 0.0 0.0 0.00 0.00 0.00 85 1017.0
20260503110551 45 136 0.0 0.0 0.00 0.00 0.00 84 1017.3
20260503090438 49 147 0.0 0.0 0.00 0.00 0.00 73 1018.4
20260503081404 51 148 0.0 0.0 0.00 0.00 0.00 67 1018.6
20260503080902 52 172 0.0 0.0 0.00 0.00 0.00 66 1018.5
20260503080358 52 163 0.0 1.0 0.00 0.00 0.00 65 1018.7
20260503072835 51 202 0.0 0.0 0.00 0.00 0.00 65 1018.8
20260503072332 51 170 0.0 0.0 0.00 0.00 0.00 65 1019.0
20260503071828 50 135 0.0 0.0 0.00 0.00 0.00 66 1019.1
20260503071325 50 136 0.0 0.0 0.00 0.00 0.00 66 1019.1
20260503070821 50 135 0.0 1.0 0.00 0.00 0.00 65 1019.0
20260503070320 50 135 0.0 0.0 0.00 0.00 0.00 65 1019.1
20260503060238 49 132 0.0 0.0 0.00 0.00 0.00 63 1019.8
20260503054725 51 132 0.0 0.0 0.00 0.00 0.00 61 1019.8
20260503054222 51 133 0.0 0.0 0.00 0.00 0.00 60 1019.7
20260503053720 51 133 0.0 0.0 0.00 0.00 0.00 59 1019.6
20260503053219 51 135 0.0 0.0 0.00 0.00 0.00 58 1019.7
20260503052714 52 131 0.0 0.0 0.00 0.00 0.00 58 1019.9
20260503052211 51 141 0.0 0.0 0.00 0.00 0.00 57 1019.7
20260503051707 51 127 0.0 0.0 0.00 0.00 0.00 58 1019.8
20260503051204 51 129 0.0 0.0 0.00 0.00 0.00 57 1019.9
20260503050655 51 131 0.0 0.0 0.00 0.00 0.00 57 1019.6
20260503050152 51 130 0.0 0.0 0.00 0.00 0.00 57 1019.9
20260503045649 52 132 0.0 0.0 0.00 0.00 0.00 57 1020.0
20260503045146 52 131 0.0 0.0 0.00 0.00 0.00 57 1019.8
20260503044643 53 132 0.0 0.0 0.00 0.00 0.00 56 1019.9
20260503044140 53 130 0.0 0.0 0.00 0.00 0.00 55 1019.7
20260503043637 53 129 0.0 0.0 0.00 0.00 0.00 54 1019.8
20260503043134 53 128 0.0 0.0 0.00 0.00 0.00 53 1019.8
20260503042630 53 130 0.0 0.0 0.00 0.00 0.00 54 1019.6
20260503042126 53 128 0.0 0.0 0.00 0.00 0.00 53 1019.7
20260503041623 53 129 0.0 0.0 0.00 0.00 0.00 52 1019.7
20260503041121 53 127 0.0 0.0 0.00 0.00 0.00 52 1019.7
20260503040618 54 128 0.0 0.0 0.00 0.00 0.00 51 1020.1
20260503040116 53 121 0.0 0.0 0.00 0.00 0.00 51 1019.9
20260503035612 52 132 0.0 0.0 0.00 0.00 0.00 52 1020.0
20260503035110 52 132 0.0 0.0 0.00 0.00 0.00 53 1019.8
20260503034607 53 132 0.0 0.0 0.00 0.00 0.00 53 1019.8
20260503034104 53 132 0.0 0.0 0.00 0.00 0.00 52 1019.8
20260503033601 53 132 0.0 0.0 0.00 0.00 0.00 52 1019.8
20260503033059 53 133 0.0 0.0 0.00 0.00 0.00 53 1020.0
20260503032557 53 135 0.0 0.0 0.00 0.00 0.00 52 1019.9
20260503032055 53 135 0.0 0.0 0.00 0.00 0.00 51 1020.0
20260503031552 53 133 0.0 0.0 0.00 0.00 0.00 51 1020.0
20260503031049 53 134 0.0 0.0 0.00 0.00 0.00 52 1019.9
20260503030545 52 134 0.0 0.0 0.00 0.00 0.00 52 1019.8
20260503030043 52 134 0.0 0.0 0.00 0.00 0.00 52 1019.9
20260503025539 53 134 0.0 0.0 0.00 0.00 0.00 52 1019.7
20260503025037 53 134 0.0 0.0 0.00 0.00 0.00 51 1019.9
20260503024533 53 135 0.0 0.0 0.00 0.00 0.00 52 1019.9
20260503024030 53 135 0.0 0.0 0.00 0.00 0.00 51 1019.7
20260503023527 53 135 0.0 0.0 0.00 0.00 0.00 50 1019.7
20260503023025 53 135 0.0 0.0 0.00 0.00 0.00 49 1019.9
20260503022520 54 135 0.0 0.0 0.00 0.00 0.00 48 1019.9
20260503022015 54 135 0.0 0.0 0.00 0.00 0.00 49 1019.7
20260503021512 55 135 0.0 0.0 0.00 0.00 0.00 48 1019.7
20260503021009 55 135 0.0 0.0 0.00 0.00 0.00 47 1019.9
20260503020507 55 135 0.0 0.0 0.00 0.00 0.00 46 1019.6
20260503020003 56 135 0.0 0.0 0.00 0.00 0.00 45 1019.7
20260503015500 56 135 0.0 0.0 0.00 0.00 0.00 44 1019.5
20260503014956 56 135 0.0 0.0 0.00 0.00 0.00 43 1019.6
20260503014453 57 135 0.0 0.0 0.00 0.00 0.00 43 1019.5
20260503013951 57 135 0.0 0.0 0.00 0.00 0.00 44 1019.6
20260503013448 58 135 0.0 0.0 0.00 0.00 0.00 42 1019.5
20260503012945 58 135 0.0 0.0 0.00 0.00 0.00 42 1019.3
20260503012443 59 135 0.0 0.0 0.00 0.00 0.00 39 1019.6
20260503011939 59 135 0.0 0.0 0.00 0.00 0.00 41 1019.6
20260503011436 60 135 0.0 0.0 0.00 0.00 0.00 39 1019.3
20260503010933 61 135 0.0 0.0 0.00 0.00 0.00 36 1019.5
20260503010429 62 135 0.0 0.0 0.00 0.00 0.00 35 1019.5
20260503005927 63 135 0.0 0.0 0.00 0.00 0.00 35 1019.5
20260503005424 64 136 0.0 0.0 0.00 0.00 0.00 35 1019.6
20260503004920 65 136 0.0 0.0 0.00 0.00 0.00 35 1019.7
20260503004417 66 137 0.0 0.0 0.00 0.00 0.00 31 1019.7
20260503003915 67 137 0.0 0.0 0.00 0.00 0.00 30 1019.7
20260503003411 69 137 0.0 0.0 0.00 0.00 0.00 31 1019.7
20260503002909 71 138 0.0 0.0 0.00 0.00 0.00 29 1019.7
20260503002406 72 135 0.0 0.0 0.00 0.00 0.00 30 1019.7
20260503001902 72 129 0.0 0.0 0.00 0.00 0.00 24 1019.8
20260503001358 72 151 0.0 0.0 0.00 0.00 0.00 26 1019.8
20260503000857 72 148 0.0 0.0 0.00 0.00 0.00 27 1019.9
20260503000353 73 111 0.0 0.0 0.00 0.00 0.00 25 1020.0
20260502235850 73 143 0.0 0.0 0.00 0.00 0.00 23 1019.8
20260502235347 72 152 0.0 0.0 0.00 0.00 0.00 25 1019.9
20260502234844 71 157 0.0 0.0 0.00 0.00 0.00 24 1020.0
20260502234341 72 171 0.0 0.0 0.00 0.00 0.00 23 1020.3
20260502233838 72 134 0.0 0.0 0.00 0.00 0.00 25 1020.2